TIANWANG 1B (TW-1B)
1 40927U 15051C   19226.51587455  .00007475  00000-0  11294-3 0  9997
2 40927  97.1356 271.8931 0008878 161.4421 308.4614 15.54969779218847
TIANWANG 1A (TW-1A)
1 40928U 15051D   19226.44923568  .00002072  00000-0  52156-4 0  9990
2 40928  97.1437 256.4949 0009872 221.1899 246.9770 15.41012135217911
LAPAN A2
1 40931U 15052B   19224.04603009  .00000128  00000-0 -71559-4 0  9993
2 40931   5.9991  28.9859 0014297 198.3742  92.6671 14.76606682209301
LQSAT
1 40958U 15057A   19226.41786595 -.00000014  00000-0  54244-5 0  9999
2 40958  97.8953 294.0719 0019413  61.7823 298.5342 14.73085771207157
CHUBUSAT 2
1 41338U 16012B   19226.18203788  .00000215  00000-0  99887-5 0  9990
2 41338  31.0027 145.7629 0013813 302.1785  57.7510 15.00166034191406
CHUBUSAT 3
1 41339U 16012C   19226.14493548  .00000216  00000-0  99832-5 0  9993
2 41339  31.0112 144.0184 0013701 308.9010  51.0408 15.00340572191393
OUFTI-1
1 41458U 16025C   19226.20337370  .00002061  00000-0  10783-3 0  9992
2 41458  98.1018 315.9227 0166719 166.6630 193.9085 15.05908623181079
E-STAR-2
1 41459U 16025D   19226.23329144  .00000816  00000-0  45660-4 0  9995
2 41459  98.1040 315.5875 0168452 167.8714 192.6658 15.05544944181054
AAUSAT 4
1 41460U 16025E   19226.47003794  .00002192  00000-0  11266-3 0  9996
2 41460  98.0965 317.2155 0158037 159.4087 201.3616 15.07464028181226
NUSAT 1
1 41557U 16033B   19226.45626255  .00000809  00000-0  32956-4 0  9996
2 41557  97.4177 313.6279 0015520  97.0173 263.2832 15.27301243178752
BEESAT 4
1 41619U 16040W   19225.61838605 +.00000775 +00000-0 +35668-4 0  9999
2 41619 097.3637 286.7912 0011324 178.3230 181.8047 15.23218391162371
PRATHAM
1 41783U 16059A   19226.16084334  .00000022  00000-0  13629-4 0  9992
2 41783  98.0634 284.4837 0033042 204.3044 155.6601 14.63003518153802
ALSAT 1N
1 41789U 16059G   19226.44302545  .00000025  00000-0  13761-4 0  9996
2 41789  98.0669 286.8792 0028159 192.4235 167.6278 14.64254667153957
NAYIF 1
1 42017U 17008BX  19225.64683881 +.00000835 +00000-0 +35680-4 0  9995
2 42017 097.3998 292.1568 0005553 348.2459 011.8649 15.25629573138452
MAX VALIER SAT
1 42778U 17036P   19225.60766425 +.00000533 +00000-0 +26264-4 0  9995
2 42778 097.3504 282.0311 0013257 035.4347 324.7768 15.22081279118744
